Wind_Speed
23 23 23 23 24 24 25 26 26 26 27 28 28 28 28 29 30 29 29 28 28 28 29 29 29 30 30 30 31 32 32 33 32 32 33 33 34 34 35 36 37 37 38
22 22 23 23 23 24 24 25 25 26 26 27 27 27 28 28 28 28 27 27 28 29 29 29 29 29 30 31 32 31 31 31 31 32 33 33 33 34 34 35 36 37 37
21 22 22 22 23 23 24 24 25 25 26 25 25 25 25 25 25 25 27 27 28 29 29 29 29 29 30 30 31 30 31 31 32 32 32 33 33 33 34 35 35 35 35
21 21 21 21 22 22 22 22 23 23 23 23 23 24 24 23 24 24 25 25 27 27 27 27 27 28 29 29 29 30 31 31 31 31 31 31 32 32 33 33 33 33 32
21 20 20 20 19 19 19 19 19 20 21 21 21 21 22 22 23 23 24 24 24 25 26 26 26 27 27 28 28 28 28 28 29 30 30 30 31 31 31 31 31 31 31
18 18 18 18 18 18 18 18 18 19 19 20 21 20 21 21 22 22 23 23 24 24 25 25 25 26 25 25 25 26 26 26 27 28 28 29 29 29 30 30 30 30 30
15 15 15 16 16 16 16 16 16 17 17 17 17 18 18 19 20 21 22 21 21 22 22 21 21 22 22 23 23 24 24 24 25 26 26 27 27 27 28 28 27 26 26
13 12 13 13 13 13 13 13 13 13 13 13 13 14 15 16 16 17 17 17 17 18 18 19 20 21 21 21 21 21 21 22 22 23 23 24 24 24 24 24 23 22 23
11 10 10 9 9 9 10 10 10 10 10 10 11 11 12 12 13 13 13 14 15 15 16 17 17 18 18 18 19 19 19 20 21 21 21 21 20 20 20 20 20 20 20
8 8 6 6 7 7 7 7 7 8 8 9 9 9 10 11 10 10 10 11 11 12 13 14 14 15 15 15 15 16 17 17 17 17 17 17 17 17 17 17 17 18 17
4 3 3 3 3 4 4 4 5 6 7 6 7 7 7 7 7 7 7 8 8 9 10 10 11 11 12 12 12 13 13 13 13 13 14 14 14 14 14 14 15 15 15
1 1 1 1 2 2 2 2 3 3 3 3 3 3 3 3 3 4 4 5 5 6 6 7 7 8 8 8 9 9 9 9 9 9 9 10 10 11 11 11 12 12 12
2 2 2 1 1 1 1 1 1 1 1 1 1 1 1 1 1 2 2 3 3 3 4 4 4 4 5 5 5 6 6 6 6 7 8 8 9 9 10 10 11 11 11
4 4 4 4 3 3 4 4 4 4 4 4 4 4 4 4 4 4 4 4 4 4 4 4 4 4 4 4 4 4 4 5 6 6 7 7 8 8 9 9 10 10 11
5 6 6 6 7 7 7 7 7 7 6 6 6 6 6 7 7 7 7 7 6 6 6 6 5 5 5 5 5 5 5 5 5 5 6 7 7 8 9 9 9 10 10
7 8 8 9 9 9 9 9 9 9 9 9 9 9 9 9 9 9 9 9 9 9 8 8 8 7 7 7 6 6 5 5 5 6 6 7 8 8 8 9 9 9 9
9 10 10 11 11 11 11 11 11 11 11 11 11 11 11 11 11 11 11 11 11 10 10 10 10 9 9 8 8 7 7 7 6 7 7 7 8 8 8 8 8 8 8
12 12 12 12 13 13 13 13 13 13 13 13 13 12 12 12 13 13 13 12 12 12 12 12 11 11 10 10 9 9 9 8 8 8 8 8 8 9 9 9 9 9 9
14 14 14 14 14 14 14 14 14 14 14 14 14 14 13 13 13 12 12 12 12 12 12 12 12 12 11 11 10 10 10 9 9 9 9 9 9 9 9 9 9 10 10
15 15 15 15 14 14 14 14 14 14 14 14 14 13 13 13 13 13 13 12 12 12 12 12 12 12 12 12 11 11 11 11 11 11 11 10 10 10 10 10 10 10 11
15 15 15 15 15 15 15 14 14 14 14 14 14 14 14 13 13 13 13 13 13 12 12 12 12 13 13 12 12 12 12 12 12 12 12 12 12 12 11 11 11 12 12
15 15 15 15 15 15 14 14 14 14 14 14 14 14 14 13 13 13 13 13 13 13 13 13 13 13 13 13 13 13 13 12 12 13 13 13 13 13 13 13 13 13 13
14 14 14 14 14 14 13 13 13 13 13 14 14 14 14 14 14 14 14 13 13 13 13 13 13 14 14 14 14 14 14 14 14 14 14 14 14 14 14 14 14 15 15
13 13 13 13 13 13 13 13 13 14 14 14 14 14 15 15 15 15 15 15 14 14 14 14 14 14 15 15 15 15 15 15 15 15 15 15 15 15 16 16 16 16 16
13 13 13 13 13 13 13 13 13 13 13 13 13 13 14 14 14 14 14 15 14 14 14 14 14 15 15 15 16 16 16 16 16 16 17 17 17 17 17 18 18 18 18
13 13 13 13 12 12 12 12 12 12 12 12 12 12 12 12 12 13 13 13 14 14 14 15 15 15 15 16 16 16 17 17 17 18 18 18 18 18 18 19 19 20 20
Wind_Direction
277 275 272 268 266 264 260 260 261 262 260 259 259 258 257 257 257 256 256 255 255 256 257 256 252 252 254 255 257 258 259 260 262 265 267 270 273 275 276 278 280 281 282
280 278 275 271 267 263 261 259 260 261 261 261 260 260 259 259 259 257 256 256 257 257 258 257 257 258 259 259 261 263 264 265 267 269 271 273 275 278 280 281 282 283 283
281 279 276 272 268 265 264 263 263 263 264 264 262 261 260 259 258 257 257 257 257 257 258 259 259 260 263 264 264 266 267 269 269 272 274 276 278 279 280 282 283 284 285
280 280 278 274 269 266 265 265 265 264 264 263 262 261 261 260 260 259 260 261 260 259 260 261 262 263 265 266 268 269 270 271 274 276 277 278 278 279 280 282 284 285 286
281 279 277 274 271 267 266 266 264 262 260 262 263 261 260 261 262 261 262 263 263 262 263 263 263 264 266 268 270 271 272 273 275 276 277 278 279 280 282 283 284 285 286
281 278 276 273 271 268 268 266 264 263 262 263 262 260 260 260 262 263 263 263 264 264 265 266 266 266 269 270 272 273 274 275 276 277 278 279 280 281 283 284 285 284 286
281 278 274 272 273 269 264 263 262 263 265 265 263 262 262 262 263 264 265 264 265 265 267 269 270 270 271 272 274 275 276 277 278 278 279 279 280 282 283 284 284 285 286
282 281 278 277 274 268 264 264 264 265 266 265 264 266 264 264 264 266 267 267 268 266 267 271 272 273 271 272 274 276 277 279 280 280 280 280 281 283 283 283 284 285 285
282 281 277 276 274 269 264 263 265 268 269 269 267 268 266 268 271 272 272 272 271 272 272 274 274 274 272 273 275 278 280 281 281 282 283 283 283 284 285 286 285 286 287
286 282 279 280 275 269 271 268 271 275 275 276 274 273 270 270 272 272 275 277 276 276 278 279 279 278 279 279 279 281 282 284 284 285 286 287 287 287 287 287 288 288 288
287 282 285 288 288 281 281 279 281 282 282 282 277 276 276 272 271 276 278 279 280 282 283 284 284 284 283 284 286 287 287 289 289 289 289 289 289 289 290 290 290 290 290
347 329 326 313 311 307 297 284 286 288 288 285 279 280 280 273 279 286 288 290 292 293 292 291 293 295 295 296 297 298 298 298 296 295 295 295 295 295 295 295 295 294 293
59 46 42 26 12 20 19 44 49 96 84 60 63 53 48 39 13 355 346 338 331 326 323 320 319 319 319 316 314 312 310 310 310 308 305 303 303 303 302 302 301 299 298
80 75 71 72 70 73 77 87 91 95 90 82 78 80 76 68 61 58 48 38 34 30 26 20 11 5 358 352 348 344 339 332 326 322 319 317 315 314 312 311 309 308 307
92 89 86 87 85 87 88 92 92 93 91 86 85 82 80 75 72 67 60 55 53 50 46 43 40 36 32 26 19 11 2 354 345 338 333 329 326 323 321 319 318 316 315
95 95 94 93 90 88 88 90 92 93 91 88 85 81 79 76 73 71 68 65 62 59 56 54 51 47 43 38 34 29 24 16 5 356 347 341 337 335 332 330 328 327 326
99 97 98 97 94 91 90 90 91 91 88 87 84 81 79 78 77 74 71 69 66 64 61 58 55 52 49 45 42 38 31 24 16 7 1 356 352 349 345 342 340 337 334
99 99 100 99 97 93 92 91 90 88 87 86 85 83 82 80 78 74 72 70 68 66 62 58 56 53 50 46 42 39 34 29 22 16 11 7 3 360 355 351 347 343 338
100 100 100 100 98 94 92 91 89 87 86 85 84 82 80 78 75 72 69 67 65 63 60 57 54 50 47 43 40 37 33 28 23 19 14 10 6 1 357 353 350 346 341
102 101 100 99 97 95 93 91 89 87 86 84 82 79 77 74 72 70 68 66 63 60 57 53 49 46 43 40 37 33 30 26 22 18 13 9 6 3 0 356 351 348 344
105 103 101 98 96 94 92 90 88 87 85 83 81 78 76 74 72 69 67 63 60 57 53 50 47 45 42 39 36 32 29 25 20 16 12 9 6 3 -0 357 353 349 345
105 103 101 99 97 94 92 90 89 87 85 83 80 78 75 72 69 66 63 60 57 55 52 49 46 43 40 36 32 28 24 20 18 15 13 10 8 5 1 356 353 350 347
105 103 102 100 98 95 93 90 88 86 85 83 80 77 73 70 67 64 62 59 56 53 51 48 44 41 37 34 30 26 23 20 17 14 12 10 7 4 0 356 352 350 347
107 105 103 102 99 97 94 91 89 88 85 83 80 77 73 70 67 64 61 58 56 53 50 47 43 39 35 32 29 26 22 19 17 14 11 8 4 1 358 354 350 346 344
107 105 104 103 102 99 96 94 91 89 86 84 81 77 73 69 66 62 59 56 53 50 46 43 39 36 33 29 27 24 21 18 16 12 9 5 1 356 353 350 347 344 342
107 105 104 103 101 99 97 94 91 88 85 83 80 76 71 67 62 58 54 50 47 43 40 37 34 31 29 26 23 20 16 13 10 8 6 4 1 356 351 348 345 342 339
Height
5769 5768 5767 5767 5767 5767 5767 5768 5768 5768 5769 5769 5769 5770 5771 5771 5772 5773 5773 5774 5774 5775 5776 5776 5777 5778 5778 5779 5779 5779 5780 5780 5779 5779 5779 5778 5778 5777 5776 5775 5773 5772 5770
5762 5761 5761 5760 5760 5760 5760 5761 5761 5761 5762 5762 5762 5763 5764 5764 5765 5766 5766 5767 5768 5768 5769 5769 5770 5771 5771 5771 5772 5772 5772 5771 5771 5771 5771 5770 5769 5768 5767 5766 5764 5763 5761
5755 5754 5754 5753 5753 5753 5753 5754 5754 5754 5755 5755 5756 5756 5757 5757 5758 5759 5760 5760 5761 5762 5762 5763 5763 5764 5764 5764 5764 5764 5764 5764 5764 5763 5762 5761 5760 5760 5758 5757 5755 5754 5752
5748 5748 5747 5747 5747 5747 5747 5747 5747 5748 5748 5749 5749 5750 5750 5751 5752 5752 5753 5754 5754 5755 5756 5756 5756 5757 5757 5757 5757 5757 5757 5756 5756 5755 5754 5753 5752 5751 5750 5749 5747 5745 5744
5742 5741 5741 5740 5740 5741 5741 5741 5741 5742 5742 5743 5743 5744 5744 5745 5745 5746 5747 5747 5748 5748 5749 5749 5750 5750 5750 5750 5750 5749 5749 5748 5748 5747 5746 5745 5744 5743 5742 5740 5739 5737 5736
5736 5736 5735 5735 5735 5735 5735 5735 5736 5736 5737 5737 5738 5738 5738 5739 5739 5740 5740 5741 5741 5742 5742 5743 5743 5743 5743 5743 5743 5742 5742 5742 5741 5740 5739 5738 5737 5736 5734 5733 5731 5730 5728
5731 5731 5730 5730 5729 5729 5730 5730 5731 5731 5731 5732 5732 5732 5733 5733 5734 5734 5735 5735 5735 5735 5736 5736 5736 5736 5736 5736 5736 5736 5735 5735 5734 5733 5732 5731 5730 5728 5727 5725 5724 5722 5721
5727 5726 5726 5725 5725 5725 5725 5726 5726 5726 5727 5727 5727 5727 5728 5728 5729 5729 5729 5729 5729 5729 5730 5730 5730 5730 5730 5730 5730 5729 5729 5728 5727 5726 5726 5724 5723 5722 5720 5719 5718 5716 5715
5723 5723 5722 5722 5722 5722 5722 5722 5723 5723 5723 5723 5723 5723 5724 5724 5724 5724 5725 5724 5724 5724 5725 5725 5725 5725 5725 5724 5724 5724 5723 5722 5721 5720 5719 5718 5717 5716 5714 5713 5712 5711 5709
5720 5720 5720 5720 5719 5719 5719 5720 5720 5720 5720 5720 5720 5720 5720 5720 5721 5721 5721 5721 5720 5720 5720 5720 5720 5720 5720 5719 5719 5718 5717 5717 5716 5715 5714 5713 5712 5710 5709 5708 5707 5706 5704
5718 5718 5718 5718 5718 5718 5718 5718 5718 5718 5718 5718 5718 5718 5718 5718 5718 5718 5718 5718 5717 5717 5717 5717 5716 5716 5716 5715 5714 5714 5713 5712 5711 5710 5709 5709 5708 5706 5705 5704 5702 5701 5700
5718 5718 5718 5718 5717 5717 5717 5717 5716 5716 5716 5716 5716 5716 5716 5716 5716 5716 5716 5715 5715 5715 5714 5714 5714 5713 5713 5712 5711 5710 5710 5709 5708 5707 5706 5705 5704 5703 5702 5701 5699 5698 5696
5718 5718 5717 5717 5717 5717 5716 5716 5716 5716 5716 5716 5716 5716 5715 5715 5715 5715 5715 5714 5714 5713 5713 5712 5712 5711 5711 5710 5709 5708 5708 5707 5706 5705 5704 5703 5702 5700 5699 5698 5696 5695 5693
5719 5718 5718 5718 5718 5717 5717 5717 5716 5716 5716 5716 5716 5716 5716 5716 5715 5715 5715 5714 5713 5713 5712 5711 5711 5710 5709 5709 5708 5707 5706 5705 5704 5703 5702 5701 5699 5698 5697 5695 5694 5692 5691
5720 5720 5719 5719 5719 5719 5718 5718 5717 5717 5717 5718 5717 5717 5717 5717 5716 5716 5715 5714 5714 5713 5712 5712 5711 5710 5709 5708 5707 5706 5705 5704 5703 5702 5701 5699 5698 5697 5695 5693 5692 5690 5688
5722 5721 5721 5721 5721 5721 5720 5720 5719 5719 5719 5719 5719 5719 5719 5718 5717 5717 5716 5716 5715 5714 5714 5713 5712 5711 5709 5708 5707 5706 5705 5704 5702 5701 5700 5698 5697 5695 5694 5692 5690 5688 5687
5724 5724 5724 5724 5724 5723 5723 5723 5722 5722 5722 5722 5721 5721 5721 5720 5720 5719 5719 5718 5717 5716 5715 5714 5713 5712 5711 5709 5708 5707 5706 5704 5703 5701 5700 5698 5696 5695 5693 5691 5689 5688 5686
5727 5727 5727 5727 5727 5726 5726 5726 5726 5725 5725 5724 5724 5724 5723 5723 5722 5722 5721 5721 5720 5718 5717 5716 5715 5714 5712 5711 5709 5708 5707 5705 5703 5702 5700 5698 5696 5694 5693 5691 5689 5687 5685
5730 5731 5731 5730 5730 5730 5730 5729 5729 5729 5728 5728 5727 5727 5726 5726 5725 5725 5724 5723 5722 5721 5720 5718 5717 5716 5714 5712 5711 5709 5708 5706 5704 5702 5700 5698 5696 5695 5693 5690 5688 5686 5684
5734 5734 5734 5734 5734 5734 5733 5733 5733 5732 5732 5731 5731 5730 5730 5729 5728 5727 5726 5725 5724 5723 5722 5721 5719 5718 5716 5714 5712 5711 5709 5707 5705 5703 5701 5699 5697 5694 5692 5690 5688 5686 5684
5738 5738 5738 5738 5738 5738 5737 5737 5736 5736 5735 5735 5734 5734 5733 5732 5731 5730 5729 5728 5727 5726 5724 5723 5721 5720 5718 5716 5714 5712 5710 5708 5706 5704 5701 5699 5697 5695 5692 5690 5687 5685 5683
5742 5742 5742 5742 5742 5741 5741 5741 5740 5740 5739 5738 5738 5737 5736 5735 5734 5733 5732 5731 5730 5728 5727 5725 5723 5722 5720 5718 5716 5713 5711 5709 5707 5704 5702 5700 5697 5695 5692 5690 5687 5684 5682
5746 5746 5746 5746 5746 5745 5745 5744 5744 5743 5743 5742 5741 5741 5740 5739 5737 5736 5735 5734 5732 5731 5729 5727 5726 5724 5722 5719 5717 5715 5712 5710 5707 5705 5702 5700 5697 5695 5692 5689 5686 5683 5680
5749 5749 5749 5749 5749 5749 5748 5748 5747 5747 5746 5746 5745 5744 5743 5742 5741 5739 5738 5737 5735 5733 5732 5730 5728 5726 5723 5721 5719 5716 5714 5711 5708 5706 5703 5700 5697 5694 5691 5688 5685 5682 5679
5753 5753 5753 5753 5753 5752 5752 5751 5751 5750 5750 5749 5748 5747 5746 5745 5744 5743 5741 5740 5738 5736 5734 5732 5730 5728 5725 5723 5720 5718 5715 5712 5709 5706 5703 5700 5697 5693 5690 5687 5684 5680 5677
5756 5756 5756 5756 5756 5756 5755 5755 5754 5754 5753 5752 5751 5750 5749 5748 5747 5746 5744 5742 5740 5738 5736 5734 5732 5729 5727 5724 5722 5719 5716 5713 5710 5706 5703 5700 5696 5693 5689 5685 5682 5678 5674